EW3148 Weather Reports


time (UTC)temp
F
wind
direction
speed
knots
gust
knots
rain 1hr
in
rain 24hr
in
rain mn
in
humidity
%
barometer
mb
20260506123724 74 118 0.9 5.2 0.00 0.00 0.00 92 1006.4
20260506122729 74 141 0.0 1.7 0.00 0.00 0.00 92 1006.4
20260506121716 74 130 0.0 1.7 0.00 0.00 0.00 92 1006.5
20260506120702 75 116 0.0 1.7 0.00 0.00 0.00 91 1006.6
20260506115712 75 144 0.0 1.7 0.00 0.00 0.00 91 1006.4
20260506114642 75 98 0.0 1.7 0.00 0.00 0.00 91 1006.3
20260506113656 75 138 0.0 0.9 0.00 0.00 0.00 90 1006.4
20260506112639 75 138 0.0 1.7 0.00 0.00 0.00 91 1006.4
20260506111653 75 123 0.0 1.7 0.00 0.00 0.00 90 1006.3
20260506110706 75 160 0.0 1.7 0.00 0.00 0.00 90 1006.2
20260506105643 75 194 0.0 1.7 0.00 0.00 0.00 90 1006.2
20260506104609 75 171 0.0 3.5 0.00 0.00 0.00 90 1006.1
20260506103544 75 205 0.9 4.3 0.00 0.00 0.00 90 1005.9
20260506102604 75 190 0.9 7.0 0.00 0.00 0.00 90 1005.7
20260506101543 75 192 2.6 7.8 0.00 0.00 0.00 90 1005.7
20260506095403 75 209 3.5 9.6 0.00 0.00 0.00 90 1005.6
20260506094423 75 192 2.6 7.0 0.00 0.00 0.00 90 1005.5
20260506092254 75 187 3.5 12.2 0.00 0.00 0.00 90 1005.3
20260506091240 75 204 2.6 10.4 0.00 0.00 0.00 90 1005.2
20260506090207 75 219 2.6 7.8 0.00 0.00 0.00 90 1005.1
20260506084057 75 170 3.5 10.4 0.00 0.00 0.00 90 1005.1
20260506081934 75 172 2.6 7.0 0.00 0.00 0.00 90 1005.2
20260506080953 75 188 4.3 10.4 0.00 0.00 0.00 90 1005.2
20260506072857 75 188 4.3 11.3 0.00 0.00 0.00 89 1005.6
20260506071858 76 182 4.3 11.3 0.00 0.00 0.00 89 1005.6
20260506070907 76 161 2.6 11.3 0.00 0.00 0.00 89 1005.7
20260506060736 76 198 5.2 12.2 0.00 0.00 0.00 88 1005.7
20260506050354 76 175 5.2 13.9 0.00 0.00 0.00 87 1005.8
20260506044348 76 171 6.1 14.8 0.00 0.00 0.00 87 1005.8
20260506043343 76 173 4.3 13.0 0.00 0.00 0.00 88 1005.8
20260506041214 77 188 3.5 9.6 0.00 0.00 0.00 88 1005.6
20260506040158 77 178 3.5 8.7 0.00 0.00 0.00 87 1005.6
20260506035201 77 165 3.5 8.7 0.00 0.00 0.00 87 1005.3
20260506034133 77 180 3.5 8.7 0.00 0.00 0.00 87 1005.3
20260506033150 77 154 3.5 8.7 0.00 0.00 0.00 87 1005.2
20260506031110 77 175 3.5 10.4 0.00 0.00 0.00 85 1005.0
20260506030111 77 148 3.5 10.4 0.00 0.00 0.00 85 1004.8
20260506025039 78 182 3.5 7.8 0.00 0.00 0.00 84 1004.8
20260506024027 78 217 3.5 9.6 0.00 0.00 0.00 84 1004.6
20260506022956 78 175 3.5 9.6 0.00 0.00 0.00 83 1004.4
20260506021954 78 159 2.6 7.0 0.00 0.00 0.00 82 1004.2
20260506020928 78 161 2.6 7.0 0.00 0.00 0.00 82 1004.0
20260506015938 79 128 2.6 7.8 0.00 0.00 0.00 81 1003.8
20260506014953 79 126 2.6 7.8 0.00 0.00 0.00 81 1003.8
20260506014006 79 171 2.6 7.0 0.00 0.00 0.00 80 1003.7
20260506012957 80 149 1.7 6.1 0.00 0.00 0.00 80 1003.7
20260506011937 80 143 1.7 4.3 0.00 0.00 0.00 79 1003.6
20260506010953 81 143 1.7 4.3 0.00 0.00 0.00 78 1003.8
20260506005952 81 161 1.7 3.5 0.00 0.00 0.00 76 1003.7
20260506004924 82 137 0.0 3.5 0.00 0.00 0.00 75 1003.8
20260506003927 82 147 0.9 6.1 0.00 0.00 0.00 75 1003.7
20260506002906 82 184 1.7 6.1 0.00 0.00 0.00 74 1003.6
20260506001837 82 150 1.7 7.0 0.00 0.00 0.00 73 1003.6
20260506000834 83 178 2.6 7.8 0.00 0.00 0.00 73 1003.6
20260505235816 83 189 2.6 8.7 0.00 0.00 0.00 73 1003.4
20260505234837 83 164 2.6 8.7 0.00 0.00 0.00 72 1003.3
20260505233816 83 181 2.6 11.3 0.00 0.00 0.00 71 1003.1
20260505232800 83 207 3.5 11.3 0.00 0.00 0.00 70 1003.2
20260505230608 83 213 1.7 8.7 0.00 0.00 0.00 71 1003.3
20260505225551 83 244 2.6 13.9 0.00 0.00 0.00 70 1003.2
20260505224515 84 155 3.5 13.9 0.00 0.00 0.00 70 1003.2
20260505223512 84 188 3.5 11.3 0.00 0.00 0.00 69 1003.1
20260505222527 84 127 2.6 11.3 0.00 0.00 0.00 68 1003.1
20260505221516 85 195 2.6 10.4 0.00 0.00 0.00 67 1003.1
20260505220529 85 209 4.3 11.3 0.00 0.00 0.00 68 1003.1
20260505213222 86 213 2.6 10.4 0.00 0.00 0.00 67 1003.6
20260505212216 85 190 3.5 10.4 0.00 0.00 0.00 68 1003.7
20260505211232 85 196 3.5 9.6 0.00 0.00 0.00 66 1003.7
20260505210229 86 167 3.5 9.6 0.00 0.00 0.00 67 1003.9
20260505204023 85 207 4.3 12.2 0.00 0.00 0.00 68 1004.2
20260505203002 85 173 3.5 11.3 0.00 0.00 0.00 69 1004.5
20260505202004 85 252 4.3 10.4 0.00 0.00 0.00 68 1004.7
20260505201009 84 219 2.6 13.9 0.00 0.00 0.00 70 1004.8
20260505195956 84 156 4.3 13.9 0.00 0.00 0.00 68 1004.8
20260505193743 83 205 3.5 10.4 0.00 0.00 0.00 69 1005.0
20260505192729 84 213 4.3 11.3 0.00 0.00 0.00 71 1005.1
20260505191743 85 228 3.5 11.3 0.00 0.00 0.00 68 1005.1
20260505190717 83 178 3.5 10.4 0.00 0.00 0.00 71 1005.2
20260505184521 82 198 2.6 7.0 0.00 0.00 0.00 71 1005.5
20260505183534 82 221 2.6 11.3 0.00 0.00 0.00 73 1005.6
20260505182507 81 159 3.5 13.9 0.00 0.00 0.00 74 1005.8
20260505181458 80 219 2.6 13.9 0.00 0.00 0.00 77 1005.9
20260505180512 78 206 2.6 8.7 0.00 0.00 0.00 79 1006.0
20260505175500 77 241 2.6 6.1 0.00 0.00 0.00 81 1006.2
20260505174514 77 225 2.6 7.8 0.00 0.00 0.00 81 1006.3
20260505173534 76 217 1.7 7.8 0.00 0.00 0.00 82 1006.4
20260505172531 76 231 1.7 7.0 0.00 0.00 0.00 84 1006.7
20260505171458 75 222 2.6 7.8 0.00 0.00 0.00 83 1006.6
20260505170516 75 193 1.7 8.7 0.00 0.00 0.00 84 1006.6
20260505165525 75 234 1.7 8.7 0.00 0.00 0.00 85 1006.6
20260505163406 74 255 1.7 7.0 0.00 0.00 0.00 86 1006.6
20260505162336 73 219 0.9 5.2 0.00 0.00 0.00 87 1006.5
20260505161343 73 221 1.7 6.1 0.00 0.00 0.00 88 1006.7
20260505153114 72 197 1.7 7.8 0.00 0.00 0.00 89 1006.6
20260505152126 72 234 2.6 7.8 0.00 0.00 0.00 89 1006.4
20260505125009 70 205 2.6 8.7 0.00 0.00 0.00 90 1005.4